Location: Beugnon
(47.6222°N, 3.7850°E)
Time: 12:51:41
(UTC+00:00)

Meteor 2-10 - Pass Details

Date: 09 April 2020
Orbit: 737 x 869 km, 81.2° (Epoch: 03 June)

Event Time Altitude Azimuth Distance (km) Brightness Sun altitude
Rises 19:00:44 0° 191° (S) 3,329 7.2 -6.4°
Reaches altitude 10° 19:03:04 10° 191° (SSW) 2,420 6.5 -6.7°
Maximum altitude 19:08:35 86° 280° (W) 854 4.3 -7.6°
Drops below altitude 10° 19:14:19 10° 11° (N) 2,508 6.8 -8.5°
Sets 19:16:47 0° 12° (NNE) 3,459 7.5 -8.9°
